STARLINK-33784 (63453 NORAD) Tracking and Keplerian Element Data

This shows tracking and keplerian element data for the satellite.

Feedback or suggestion? Click here.




ElementValue
Catalog63453
NameSTARLINK-33784
Epoch Orbit4122
Epoch Day354.15342119
Epoch Year2025
RAAN152.1758
Inclination53.158
Eccentricity0.0001221
Argument of Perigee92.2986
Mean Anonmoly267.8154
Mean Motion15.3019868
Decay Rate8.983E-05
L11 63453U 25069W 25354.15342119 .00008983 00000+0 31508-3 0 9995
L22 63453 53.1580 152.1758 0001221 92.2986 267.8154 15.30198680 41229



Live tracking and technical data element details for STARLINK-33784 (NORAD 63453). STARLINK-33784 can be tracked NOW for your location showing map with azimuth and elevation plus other details from your city location.







IsCatalogInMostPopularTable: catalog: 63453, numindb: 2
Update: records affected: 1



GetName: 63453 STARLINK-33784

Hit Count: updated at: Sat, 07 Feb 2026 07:04:14 GMT